owner,sensor,date,latitude,longitude,vertical_datum,sea_water_practical_salinity,qcFlag 
TABS,ioos:station:wmo:42048:1,2013-07-01T00:00:00Z,27.9396,-96.8429,2.0,36.2578,11111222 
TABS,ioos:station:wmo:42048:1,2013-07-01T00:30:00Z,27.9396,-96.8429,2.0,36.2603,11111222 
TABS,ioos:station:wmo:42048:1,2013-07-01T01:00:00Z,27.9396,-96.8429,2.0,36.2592,11111222 
TABS,ioos:station:wmo:42048:1,2013-07-01T01:30:00Z,27.9396,-96.8429,2.0,36.2597,11111222 
TABS,ioos:station:wmo:42048:1,2013-07-01T02:00:00Z,27.9396,-96.8429,2.0,36.2592,11111222 
TABS,ioos:station:wmo:42048:1,2013-07-01T02:30:00Z,27.9396,-96.8429,2.0,36.2588,11111222 
TABS,ioos:station:wmo:42048:1,2013-07-01T03:00:00Z,27.9396,-96.8429,2.0,36.2591,11111222 
TABS,ioos:station:wmo:42048:1,2013-07-01T03:30:00Z,27.9396,-96.8429,2.0,36.2605,11111222 
TABS,ioos:station:wmo:42048:1,2013-07-01T04:00:00Z,27.9396,-96.8429,2.0,36.2596,11111222 
TABS,ioos:station:wmo:42048:1,2013-07-01T04:30:00Z,27.9396,-96.8429,2.0,36.2588,11111222 
TABS,ioos:station:wmo:42048:1,2013-07-01T05:00:00Z,27.9396,-96.8429,2.0,36.2574,11111222 
TABS,ioos:station:wmo:42048:1,2013-07-01T05:30:00Z,27.9396,-96.8429,2.0,36.2556,11111222 
TABS,ioos:station:wmo:42048:1,2013-07-01T06:00:00Z,27.9396,-96.8429,2.0,36.2561,11111222 
TABS,ioos:station:wmo:42048:1,2013-07-01T06:30:00Z,27.9396,-96.8429,2.0,36.2566,11111222 
TABS,ioos:station:wmo:42048:1,2013-07-01T07:00:00Z,27.9396,-96.8429,2.0,36.256,11111222 
TABS,ioos:station:wmo:42048:1,2013-07-01T07:30:00Z,27.9396,-96.8429,2.0,36.2557,11111222 
TABS,ioos:station:wmo:42048:1,2013-07-01T08:00:00Z,27.9396,-96.8429,2.0,36.2532,11111222 
TABS,ioos:station:wmo:42048:1,2013-07-01T08:30:00Z,27.9396,-96.8429,2.0,36.2515,11111222 
TABS,ioos:station:wmo:42048:1,2013-07-01T09:00:00Z,27.9396,-96.8429,2.0,36.2502,11111222 
TABS,ioos:station:wmo:42048:1,2013-07-01T09:30:00Z,27.9396,-96.8429,2.0,36.2512,11111222 
TABS,ioos:station:wmo:42048:1,2013-07-01T10:00:00Z,27.9396,-96.8429,2.0,36.2513,11111222 
TABS,ioos:station:wmo:42048:1,2013-07-01T10:30:00Z,27.9396,-96.8429,2.0,36.2495,11111222 
TABS,ioos:station:wmo:42048:1,2013-07-01T11:00:00Z,27.9396,-96.8429,2.0,36.2471,11111222 
TABS,ioos:station:wmo:42048:1,2013-07-01T11:30:00Z,27.9396,-96.8429,2.0,36.2449,11111222 
TABS,ioos:station:wmo:42048:1,2013-07-01T12:00:00Z,27.9396,-96.8429,2.0,36.2449,11111222 
TABS,ioos:station:wmo:42048:1,2013-07-01T12:30:00Z,27.9396,-96.8429,2.0,36.2422,11111222 
TABS,ioos:station:wmo:42048:1,2013-07-01T13:00:00Z,27.9396,-96.8429,2.0,36.2439,11111222 
TABS,ioos:station:wmo:42048:1,2013-07-01T13:30:00Z,27.9396,-96.8429,2.0,36.244,11111222 
TABS,ioos:station:wmo:42048:1,2013-07-01T14:00:00Z,27.9396,-96.8429,2.0,36.2438,11111222 
TABS,ioos:station:wmo:42048:1,2013-07-01T14:30:00Z,27.9396,-96.8429,2.0,36.2452,11111222 
TABS,ioos:station:wmo:42048:1,2013-07-01T15:00:00Z,27.9396,-96.8429,2.0,36.2472,11111222 
TABS,ioos:station:wmo:42048:1,2013-07-01T15:30:00Z,27.9396,-96.8429,2.0,36.2537,11111222 
TABS,ioos:station:wmo:42048:1,2013-07-01T16:00:00Z,27.9396,-96.8429,2.0,36.2572,11111222 
TABS,ioos:station:wmo:42048:1,2013-07-01T16:30:00Z,27.9396,-96.8429,2.0,36.2578,11111222 
TABS,ioos:station:wmo:42048:1,2013-07-01T17:00:00Z,27.9396,-96.8429,2.0,36.2578,11111222 
TABS,ioos:station:wmo:42048:1,2013-07-01T17:30:00Z,27.9396,-96.8429,2.0,36.2585,11111222 
TABS,ioos:station:wmo:42048:1,2013-07-01T18:00:00Z,27.9396,-96.8429,2.0,36.2528,11111222 
TABS,ioos:station:wmo:42048:1,2013-07-01T18:30:00Z,27.9396,-96.8429,2.0,36.2565,11111222 
TABS,ioos:station:wmo:42048:1,2013-07-01T19:00:00Z,27.9396,-96.8429,2.0,36.2633,11111222 
TABS,ioos:station:wmo:42048:1,2013-07-01T19:30:00Z,27.9396,-96.8429,2.0,36.2474,11111222 
TABS,ioos:station:wmo:42048:1,2013-07-01T20:00:00Z,27.9396,-96.8429,2.0,36.2717,11111222 
TABS,ioos:station:wmo:42048:1,2013-07-01T20:30:00Z,27.9396,-96.8429,2.0,36.2673,11111222 
TABS,ioos:station:wmo:42048:1,2013-07-01T21:00:00Z,27.9396,-96.8429,2.0,36.2833,11111222 
TABS,ioos:station:wmo:42048:1,2013-07-01T21:30:00Z,27.9396,-96.8429,2.0,36.2995,11111222 
TABS,ioos:station:wmo:42048:1,2013-07-01T22:00:00Z,27.9396,-96.8429,2.0,36.2846,11111222 
TABS,ioos:station:wmo:42048:1,2013-07-01T22:30:00Z,27.9396,-96.8429,2.0,36.3016,11111222 
TABS,ioos:station:wmo:42048:1,2013-07-01T23:00:00Z,27.9396,-96.8429,2.0,36.2963,11111222 
TABS,ioos:station:wmo:42048:1,2013-07-01T23:30:00Z,27.9396,-96.8429,2.0,36.2986,11111222 
TABS,ioos:station:wmo:42048:1,2013-07-02T00:00:00Z,27.9396,-96.8429,2.0,36.3012,11111222 
TABS,ioos:station:wmo:42048:1,2013-07-02T00:30:00Z,27.9396,-96.8429,2.0,36.289,11111222 
TABS,ioos:station:wmo:42048:1,2013-07-02T01:00:00Z,27.9396,-96.8429,2.0,36.2925,11111222 
TABS,ioos:station:wmo:42048:1,2013-07-02T01:30:00Z,27.9396,-96.8429,2.0,36.2894,11111222 
TABS,ioos:station:wmo:42048:1,2013-07-02T02:00:00Z,27.9396,-96.8429,2.0,36.2922,11111222 
TABS,ioos:station:wmo:42048:1,2013-07-02T02:30:00Z,27.9396,-96.8429,2.0,36.2882,11111222 
TABS,ioos:station:wmo:42048:1,2013-07-02T03:00:00Z,27.9396,-96.8429,2.0,36.2864,11111222 
TABS,ioos:station:wmo:42048:1,2013-07-02T03:30:00Z,27.9396,-96.8429,2.0,36.2882,11111222 
TABS,ioos:station:wmo:42048:1,2013-07-02T04:00:00Z,27.9396,-96.8429,2.0,36.2834,11111222 
TABS,ioos:station:wmo:42048:1,2013-07-02T04:30:00Z,27.9396,-96.8429,2.0,36.2844,11111222 
TABS,ioos:station:wmo:42048:1,2013-07-02T05:00:00Z,27.9396,-96.8429,2.0,36.2809,11111222 
TABS,ioos:station:wmo:42048:1,2013-07-02T05:30:00Z,27.9396,-96.8429,2.0,36.2765,11111222 
TABS,ioos:station:wmo:42048:1,2013-07-02T06:00:00Z,27.9396,-96.8429,2.0,36.2745,11111222 
TABS,ioos:station:wmo:42048:1,2013-07-02T06:30:00Z,27.9396,-96.8429,2.0,36.2704,11111222 
TABS,ioos:station:wmo:42048:1,2013-07-02T07:00:00Z,27.9396,-96.8429,2.0,36.263,11111222 
TABS,ioos:station:wmo:42048:1,2013-07-02T07:30:00Z,27.9396,-96.8429,2.0,36.258,11111222 
TABS,ioos:station:wmo:42048:1,2013-07-02T08:00:00Z,27.9396,-96.8429,2.0,36.2529,11111222 
TABS,ioos:station:wmo:42048:1,2013-07-02T08:30:00Z,27.9396,-96.8429,2.0,36.2515,11111222 
TABS,ioos:station:wmo:42048:1,2013-07-02T09:00:00Z,27.9396,-96.8429,2.0,36.2415,11111222 
TABS,ioos:station:wmo:42048:1,2013-07-02T09:30:00Z,27.9396,-96.8429,2.0,36.2324,11111222 
TABS,ioos:station:wmo:42048:1,2013-07-02T10:00:00Z,27.9396,-96.8429,2.0,36.2196,11111222 
TABS,ioos:station:wmo:42048:1,2013-07-02T10:30:00Z,27.9396,-96.8429,2.0,36.2253,11111222 
TABS,ioos:station:wmo:42048:1,2013-07-02T11:00:00Z,27.9396,-96.8429,2.0,36.2272,11111222 
TABS,ioos:station:wmo:42048:1,2013-07-02T11:30:00Z,27.9396,-96.8429,2.0,36.2275,11111222 
TABS,ioos:station:wmo:42048:1,2013-07-02T12:00:00Z,27.9396,-96.8429,2.0,36.2245,11111222 
TABS,ioos:station:wmo:42048:1,2013-07-02T12:30:00Z,27.9396,-96.8429,2.0,36.2278,11111222 
TABS,ioos:station:wmo:42048:1,2013-07-02T13:00:00Z,27.9396,-96.8429,2.0,36.2272,11111222 
TABS,ioos:station:wmo:42048:1,2013-07-02T13:30:00Z,27.9396,-96.8429,2.0,36.2282,11111222 
TABS,ioos:station:wmo:42048:1,2013-07-02T14:00:00Z,27.9396,-96.8429,2.0,36.2213,11111222 
TABS,ioos:station:wmo:42048:1,2013-07-02T14:30:00Z,27.9396,-96.8429,2.0,36.2193,11111222 
TABS,ioos:station:wmo:42048:1,2013-07-02T15:00:00Z,27.9396,-96.8429,2.0,36.2195,11111222 
TABS,ioos:station:wmo:42048:1,2013-07-02T15:30:00Z,27.9396,-96.8429,2.0,36.2212,11111222 
TABS,ioos:station:wmo:42048:1,2013-07-02T16:00:00Z,27.9396,-96.8429,2.0,36.2225,11111222 
TABS,ioos:station:wmo:42048:1,2013-07-02T16:30:00Z,27.9396,-96.8429,2.0,36.2234,11111222 
TABS,ioos:station:wmo:42048:1,2013-07-02T17:00:00Z,27.9396,-96.8429,2.0,36.2212,11111222 
TABS,ioos:station:wmo:42048:1,2013-07-02T17:30:00Z,27.9396,-96.8429,2.0,36.2211,11111222 
TABS,ioos:station:wmo:42048:1,2013-07-02T18:00:00Z,27.9396,-96.8429,2.0,36.2262,11111222 
TABS,ioos:station:wmo:42048:1,2013-07-02T18:30:00Z,27.9396,-96.8429,2.0,36.2259,11111222 
TABS,ioos:station:wmo:42048:1,2013-07-02T19:00:00Z,27.9396,-96.8429,2.0,36.2251,11111222 
TABS,ioos:station:wmo:42048:1,2013-07-02T19:30:00Z,27.9396,-96.8429,2.0,36.231,11111222 
TABS,ioos:station:wmo:42048:1,2013-07-02T20:00:00Z,27.9396,-96.8429,2.0,36.2419,11111222 
TABS,ioos:station:wmo:42048:1,2013-07-02T20:30:00Z,27.9396,-96.8429,2.0,36.3307,11111222 
TABS,ioos:station:wmo:42048:1,2013-07-02T21:00:00Z,27.9396,-96.8429,2.0,36.28,11111222 
TABS,ioos:station:wmo:42048:1,2013-07-02T21:30:00Z,27.9396,-96.8429,2.0,36.2538,11111222 
TABS,ioos:station:wmo:42048:1,2013-07-02T22:00:00Z,27.9396,-96.8429,2.0,36.2314,11111222 
TABS,ioos:station:wmo:42048:1,2013-07-02T22:30:00Z,27.9396,-96.8429,2.0,36.2373,11111222 
TABS,ioos:station:wmo:42048:1,2013-07-02T23:00:00Z,27.9396,-96.8429,2.0,36.2264,11111222 
TABS,ioos:station:wmo:42048:1,2013-07-02T23:30:00Z,27.9396,-96.8429,2.0,36.2338,11111222 
TABS,ioos:station:wmo:42048:1,2013-07-03T00:00:00Z,27.9396,-96.8429,2.0,36.2323,11111222 
TABS,ioos:station:wmo:42048:1,2013-07-03T00:30:00Z,27.9396,-96.8429,2.0,36.218,11111222 
TABS,ioos:station:wmo:42048:1,2013-07-03T01:00:00Z,27.9396,-96.8429,2.0,36.2411,11111222 
TABS,ioos:station:wmo:42048:1,2013-07-03T01:30:00Z,27.9396,-96.8429,2.0,36.2228,11111222 
TABS,ioos:station:wmo:42048:1,2013-07-03T02:00:00Z,27.9396,-96.8429,2.0,36.2161,11111222 
TABS,ioos:station:wmo:42048:1,2013-07-03T02:30:00Z,27.9396,-96.8429,2.0,36.2163,11111222 
TABS,ioos:station:wmo:42048:1,2013-07-03T03:00:00Z,27.9396,-96.8429,2.0,36.2155,11111222 
TABS,ioos:station:wmo:42048:1,2013-07-03T03:30:00Z,27.9396,-96.8429,2.0,36.2147,11111222 
TABS,ioos:station:wmo:42048:1,2013-07-03T04:00:00Z,27.9396,-96.8429,2.0,36.2105,11111222 
TABS,ioos:station:wmo:42048:1,2013-07-03T04:30:00Z,27.9396,-96.8429,2.0,36.2072,11111222 
TABS,ioos:station:wmo:42048:1,2013-07-03T05:00:00Z,27.9396,-96.8429,2.0,36.2111,11111222 
TABS,ioos:station:wmo:42048:1,2013-07-03T05:30:00Z,27.9396,-96.8429,2.0,36.2102,11111222 
TABS,ioos:station:wmo:42048:1,2013-07-03T06:00:00Z,27.9396,-96.8429,2.0,36.2004,11111222 
TABS,ioos:station:wmo:42048:1,2013-07-03T06:30:00Z,27.9396,-96.8429,2.0,36.1955,11111222 
TABS,ioos:station:wmo:42048:1,2013-07-03T07:00:00Z,27.9396,-96.8429,2.0,36.1977,11111222 
TABS,ioos:station:wmo:42048:1,2013-07-03T07:30:00Z,27.9396,-96.8429,2.0,36.199,11111222 
TABS,ioos:station:wmo:42048:1,2013-07-03T08:00:00Z,27.9396,-96.8429,2.0,36.1946,11111222 
TABS,ioos:station:wmo:42048:1,2013-07-03T08:30:00Z,27.9396,-96.8429,2.0,36.1914,11111222 
TABS,ioos:station:wmo:42048:1,2013-07-03T09:00:00Z,27.9396,-96.8429,2.0,36.1911,11111222 
TABS,ioos:station:wmo:42048:1,2013-07-03T09:30:00Z,27.9396,-96.8429,2.0,36.1883,11111222 
TABS,ioos:station:wmo:42048:1,2013-07-03T10:00:00Z,27.9396,-96.8429,2.0,36.1834,11111222 
TABS,ioos:station:wmo:42048:1,2013-07-03T10:30:00Z,27.9396,-96.8429,2.0,36.1817,11111222 
TABS,ioos:station:wmo:42048:1,2013-07-03T11:00:00Z,27.9396,-96.8429,2.0,36.183,11111222 
TABS,ioos:station:wmo:42048:1,2013-07-03T11:30:00Z,27.9396,-96.8429,2.0,36.1769,11111222 
TABS,ioos:station:wmo:42048:1,2013-07-03T12:00:00Z,27.9396,-96.8429,2.0,36.1777,11111222 
TABS,ioos:station:wmo:42048:1,2013-07-03T12:30:00Z,27.9396,-96.8429,2.0,36.1706,11111222 
TABS,ioos:station:wmo:42048:1,2013-07-03T13:00:00Z,27.9396,-96.8429,2.0,36.1732,11111222 
TABS,ioos:station:wmo:42048:1,2013-07-03T13:30:00Z,27.9396,-96.8429,2.0,36.1707,11111222 
TABS,ioos:station:wmo:42048:1,2013-07-03T14:00:00Z,27.9396,-96.8429,2.0,36.1713,11111222 
TABS,ioos:station:wmo:42048:1,2013-07-03T14:30:00Z,27.9396,-96.8429,2.0,36.1718,11111222 
TABS,ioos:station:wmo:42048:1,2013-07-03T15:00:00Z,27.9396,-96.8429,2.0,36.1673,11111222 
TABS,ioos:station:wmo:42048:1,2013-07-03T15:30:00Z,27.9396,-96.8429,2.0,36.1687,11111222 
TABS,ioos:station:wmo:42048:1,2013-07-03T16:00:00Z,27.9396,-96.8429,2.0,36.1676,11111222 
TABS,ioos:station:wmo:42048:1,2013-07-03T16:30:00Z,27.9396,-96.8429,2.0,36.1648,11111222 
TABS,ioos:station:wmo:42048:1,2013-07-03T17:00:00Z,27.9396,-96.8429,2.0,36.1631,11111222 
TABS,ioos:station:wmo:42048:1,2013-07-03T17:30:00Z,27.9396,-96.8429,2.0,36.1691,11111222 
TABS,ioos:station:wmo:42048:1,2013-07-03T18:00:00Z,27.9396,-96.8429,2.0,36.243,11111222 
TABS,ioos:station:wmo:42048:1,2013-07-03T18:30:00Z,27.9396,-96.8429,2.0,36.1825,11111222 
TABS,ioos:station:wmo:42048:1,2013-07-03T19:00:00Z,27.9396,-96.8429,2.0,36.1807,11111222 
TABS,ioos:station:wmo:42048:1,2013-07-03T19:30:00Z,27.9396,-96.8429,2.0,36.1957,11111222 
TABS,ioos:station:wmo:42048:1,2013-07-03T20:00:00Z,27.9396,-96.8429,2.0,36.1597,11111222 
TABS,ioos:station:wmo:42048:1,2013-07-03T20:30:00Z,27.9396,-96.8429,2.0,36.1613,11111222 
TABS,ioos:station:wmo:42048:1,2013-07-03T21:00:00Z,27.9396,-96.8429,2.0,36.15,11111222 
TABS,ioos:station:wmo:42048:1,2013-07-03T21:30:00Z,27.9396,-96.8429,2.0,36.172,11111222 
TABS,ioos:station:wmo:42048:1,2013-07-03T22:00:00Z,27.9396,-96.8429,2.0,36.1695,11111222 
TABS,ioos:station:wmo:42048:1,2013-07-03T22:30:00Z,27.9396,-96.8429,2.0,36.175,11111222 
TABS,ioos:station:wmo:42048:1,2013-07-03T23:00:00Z,27.9396,-96.8429,2.0,36.1736,11111222 
TABS,ioos:station:wmo:42048:1,2013-07-03T23:30:00Z,27.9396,-96.8429,2.0,36.1758,11111222 
TABS,ioos:station:wmo:42048:1,2013-07-04T00:00:00Z,27.9396,-96.8429,2.0,36.1757,11111222 
TABS,ioos:station:wmo:42048:1,2013-07-04T00:30:00Z,27.9396,-96.8429,2.0,36.18,11111222 
TABS,ioos:station:wmo:42048:1,2013-07-04T01:00:00Z,27.9396,-96.8429,2.0,36.173,11111222 
TABS,ioos:station:wmo:42048:1,2013-07-04T01:30:00Z,27.9396,-96.8429,2.0,36.1759,11111222 
TABS,ioos:station:wmo:42048:1,2013-07-04T02:00:00Z,27.9396,-96.8429,2.0,36.1741,11111222 
TABS,ioos:station:wmo:42048:1,2013-07-04T02:30:00Z,27.9396,-96.8429,2.0,36.1784,11111222 
TABS,ioos:station:wmo:42048:1,2013-07-04T03:00:00Z,27.9396,-96.8429,2.0,36.1703,11111222 
TABS,ioos:station:wmo:42048:1,2013-07-04T03:30:00Z,27.9396,-96.8429,2.0,36.1703,11111222 
TABS,ioos:station:wmo:42048:1,2013-07-04T04:00:00Z,27.9396,-96.8429,2.0,36.1666,11111222 
TABS,ioos:station:wmo:42048:1,2013-07-04T04:30:00Z,27.9396,-96.8429,2.0,36.1727,11111222 
TABS,ioos:station:wmo:42048:1,2013-07-04T05:00:00Z,27.9396,-96.8429,2.0,36.1745,11111222 
TABS,ioos:station:wmo:42048:1,2013-07-04T05:30:00Z,27.9396,-96.8429,2.0,36.1685,11111222 
TABS,ioos:station:wmo:42048:1,2013-07-04T06:00:00Z,27.9396,-96.8429,2.0,36.1694,11111222 
TABS,ioos:station:wmo:42048:1,2013-07-04T06:30:00Z,27.9396,-96.8429,2.0,36.1724,11111222 
TABS,ioos:station:wmo:42048:1,2013-07-04T07:00:00Z,27.9396,-96.8429,2.0,36.1726,11111222 
TABS,ioos:station:wmo:42048:1,2013-07-04T07:30:00Z,27.9396,-96.8429,2.0,36.1745,11111222 
TABS,ioos:station:wmo:42048:1,2013-07-04T08:00:00Z,27.9396,-96.8429,2.0,36.1646,11111222 
TABS,ioos:station:wmo:42048:1,2013-07-04T08:30:00Z,27.9396,-96.8429,2.0,36.1658,11111222 
TABS,ioos:station:wmo:42048:1,2013-07-04T09:00:00Z,27.9396,-96.8429,2.0,36.1711,11111222 
TABS,ioos:station:wmo:42048:1,2013-07-04T09:30:00Z,27.9396,-96.8429,2.0,36.1676,11111222 
TABS,ioos:station:wmo:42048:1,2013-07-04T10:00:00Z,27.9396,-96.8429,2.0,36.1698,11111222 
TABS,ioos:station:wmo:42048:1,2013-07-04T10:30:00Z,27.9396,-96.8429,2.0,36.175,11111222 
TABS,ioos:station:wmo:42048:1,2013-07-04T11:00:00Z,27.9396,-96.8429,2.0,36.166,11111222 
TABS,ioos:station:wmo:42048:1,2013-07-04T11:30:00Z,27.9396,-96.8429,2.0,36.1682,11111222 
TABS,ioos:station:wmo:42048:1,2013-07-04T12:00:00Z,27.9396,-96.8429,2.0,36.1715,11111222 
TABS,ioos:station:wmo:42048:1,2013-07-04T12:30:00Z,27.9396,-96.8429,2.0,36.1652,11111222 
TABS,ioos:station:wmo:42048:1,2013-07-04T13:00:00Z,27.9396,-96.8429,2.0,36.1689,11111222 
TABS,ioos:station:wmo:42048:1,2013-07-04T13:30:00Z,27.9396,-96.8429,2.0,36.1665,11111222 
TABS,ioos:station:wmo:42048:1,2013-07-04T14:00:00Z,27.9396,-96.8429,2.0,36.1657,11111222 
TABS,ioos:station:wmo:42048:1,2013-07-04T14:30:00Z,27.9396,-96.8429,2.0,36.1648,11111222 
TABS,ioos:station:wmo:42048:1,2013-07-04T15:00:00Z,27.9396,-96.8429,2.0,36.1533,11111222 
TABS,ioos:station:wmo:42048:1,2013-07-04T15:30:00Z,27.9396,-96.8429,2.0,36.1421,11111222 
TABS,ioos:station:wmo:42048:1,2013-07-04T16:00:00Z,27.9396,-96.8429,2.0,36.1432,11111222 
TABS,ioos:station:wmo:42048:1,2013-07-04T16:30:00Z,27.9396,-96.8429,2.0,36.1434,11111222 
TABS,ioos:station:wmo:42048:1,2013-07-04T17:00:00Z,27.9396,-96.8429,2.0,36.1356,11111222 
TABS,ioos:station:wmo:42048:1,2013-07-04T17:30:00Z,27.9396,-96.8429,2.0,36.1126,11111222 
TABS,ioos:station:wmo:42048:1,2013-07-04T18:00:00Z,27.9396,-96.8429,2.0,36.1042,11111222 
TABS,ioos:station:wmo:42048:1,2013-07-04T18:30:00Z,27.9396,-96.8429,2.0,36.1043,11111222 
TABS,ioos:station:wmo:42048:1,2013-07-04T19:00:00Z,27.9396,-96.8429,2.0,36.1023,11111222 
TABS,ioos:station:wmo:42048:1,2013-07-04T19:30:00Z,27.9396,-96.8429,2.0,36.1027,11111222 
TABS,ioos:station:wmo:42048:1,2013-07-04T20:00:00Z,27.9396,-96.8429,2.0,36.1242,11111222 
TABS,ioos:station:wmo:42048:1,2013-07-04T20:30:00Z,27.9396,-96.8429,2.0,36.1953,11111222 
TABS,ioos:station:wmo:42048:1,2013-07-04T21:00:00Z,27.9396,-96.8429,2.0,36.1393,11111222 
TABS,ioos:station:wmo:42048:1,2013-07-04T21:30:00Z,27.9396,-96.8429,2.0,36.1207,11111222 
TABS,ioos:station:wmo:42048:1,2013-07-04T22:00:00Z,27.9396,-96.8429,2.0,36.0886,11111222 
TABS,ioos:station:wmo:42048:1,2013-07-04T22:30:00Z,27.9396,-96.8429,2.0,36.0979,11111222 
TABS,ioos:station:wmo:42048:1,2013-07-04T23:00:00Z,27.9396,-96.8429,2.0,36.0676,11111222 
TABS,ioos:station:wmo:42048:1,2013-07-04T23:30:00Z,27.9396,-96.8429,2.0,36.0763,11111222 
TABS,ioos:station:wmo:42048:1,2013-07-05T00:00:00Z,27.9396,-96.8429,2.0,36.0753,11111222 
TABS,ioos:station:wmo:42048:1,2013-07-05T00:30:00Z,27.9396,-96.8429,2.0,36.0667,11111222 
TABS,ioos:station:wmo:42048:1,2013-07-05T01:00:00Z,27.9396,-96.8429,2.0,36.0695,11111222 
TABS,ioos:station:wmo:42048:1,2013-07-05T01:30:00Z,27.9396,-96.8429,2.0,36.0781,11111222 
TABS,ioos:station:wmo:42048:1,2013-07-05T02:00:00Z,27.9396,-96.8429,2.0,36.0858,11111222 
TABS,ioos:station:wmo:42048:1,2013-07-05T02:30:00Z,27.9396,-96.8429,2.0,36.087,11111222 
TABS,ioos:station:wmo:42048:1,2013-07-05T03:00:00Z,27.9396,-96.8429,2.0,36.0809,11111222 
TABS,ioos:station:wmo:42048:1,2013-07-05T03:30:00Z,27.9396,-96.8429,2.0,36.0725,11111222 
TABS,ioos:station:wmo:42048:1,2013-07-05T04:00:00Z,27.9396,-96.8429,2.0,36.0742,11111222 
TABS,ioos:station:wmo:42048:1,2013-07-05T04:30:00Z,27.9396,-96.8429,2.0,36.0661,11111222 
TABS,ioos:station:wmo:42048:1,2013-07-05T05:00:00Z,27.9396,-96.8429,2.0,36.0618,11111222 
TABS,ioos:station:wmo:42048:1,2013-07-05T05:30:00Z,27.9396,-96.8429,2.0,36.0643,11111222 
TABS,ioos:station:wmo:42048:1,2013-07-05T06:00:00Z,27.9396,-96.8429,2.0,36.055,11111222 
TABS,ioos:station:wmo:42048:1,2013-07-05T06:30:00Z,27.9396,-96.8429,2.0,36.0502,11111222 
TABS,ioos:station:wmo:42048:1,2013-07-05T07:00:00Z,27.9396,-96.8429,2.0,36.0441,11111222 
TABS,ioos:station:wmo:42048:1,2013-07-05T07:30:00Z,27.9396,-96.8429,2.0,36.0445,11111222 
TABS,ioos:station:wmo:42048:1,2013-07-05T08:00:00Z,27.9396,-96.8429,2.0,36.0387,11111222 
TABS,ioos:station:wmo:42048:1,2013-07-05T08:30:00Z,27.9396,-96.8429,2.0,36.0377,11111222 
TABS,ioos:station:wmo:42048:1,2013-07-05T09:00:00Z,27.9396,-96.8429,2.0,36.0391,11111222 
TABS,ioos:station:wmo:42048:1,2013-07-05T09:30:00Z,27.9396,-96.8429,2.0,36.0324,11111222 
TABS,ioos:station:wmo:42048:1,2013-07-05T10:00:00Z,27.9396,-96.8429,2.0,36.0296,11111222 
TABS,ioos:station:wmo:42048:1,2013-07-05T10:30:00Z,27.9396,-96.8429,2.0,36.0287,11111222 
TABS,ioos:station:wmo:42048:1,2013-07-05T11:00:00Z,27.9396,-96.8429,2.0,36.0249,11111222 
TABS,ioos:station:wmo:42048:1,2013-07-05T11:30:00Z,27.9396,-96.8429,2.0,36.0186,11111222 
TABS,ioos:station:wmo:42048:1,2013-07-05T12:00:00Z,27.9396,-96.8429,2.0,36.018,11111222 
TABS,ioos:station:wmo:42048:1,2013-07-05T12:30:00Z,27.9396,-96.8429,2.0,36.018,11111222 
TABS,ioos:station:wmo:42048:1,2013-07-05T13:00:00Z,27.9396,-96.8429,2.0,36.0153,11111222 
TABS,ioos:station:wmo:42048:1,2013-07-05T13:30:00Z,27.9396,-96.8429,2.0,36.0144,11111222 
TABS,ioos:station:wmo:42048:1,2013-07-05T14:00:00Z,27.9396,-96.8429,2.0,36.0125,11111222 
TABS,ioos:station:wmo:42048:1,2013-07-05T14:30:00Z,27.9396,-96.8429,2.0,36.0168,11111222 
TABS,ioos:station:wmo:42048:1,2013-07-05T15:00:00Z,27.9396,-96.8429,2.0,36.0198,11111222 
TABS,ioos:station:wmo:42048:1,2013-07-05T15:30:00Z,27.9396,-96.8429,2.0,36.0198,11111222 
TABS,ioos:station:wmo:42048:1,2013-07-05T16:00:00Z,27.9396,-96.8429,2.0,36.0208,11111222 
TABS,ioos:station:wmo:42048:1,2013-07-05T16:30:00Z,27.9396,-96.8429,2.0,36.0176,11111222 
TABS,ioos:station:wmo:42048:1,2013-07-05T17:00:00Z,27.9396,-96.8429,2.0,36.0072,11111222 
TABS,ioos:station:wmo:42048:1,2013-07-05T17:30:00Z,27.9396,-96.8429,2.0,36.0109,11111222 
TABS,ioos:station:wmo:42048:1,2013-07-05T18:00:00Z,27.9396,-96.8429,2.0,36.0295,11111222 
TABS,ioos:station:wmo:42048:1,2013-07-05T18:30:00Z,27.9396,-96.8429,2.0,36.0172,11111222 
TABS,ioos:station:wmo:42048:1,2013-07-05T19:00:00Z,27.9396,-96.8429,2.0,36.0249,11111222 
TABS,ioos:station:wmo:42048:1,2013-07-05T19:30:00Z,27.9396,-96.8429,2.0,36.0268,11111222 
TABS,ioos:station:wmo:42048:1,2013-07-05T20:00:00Z,27.9396,-96.8429,2.0,36.0277,11111222 
TABS,ioos:station:wmo:42048:1,2013-07-05T20:30:00Z,27.9396,-96.8429,2.0,36.0307,11111222 
TABS,ioos:station:wmo:42048:1,2013-07-05T21:00:00Z,27.9396,-96.8429,2.0,36.0288,11111222 
TABS,ioos:station:wmo:42048:1,2013-07-05T21:30:00Z,27.9396,-96.8429,2.0,36.0185,11111222 
TABS,ioos:station:wmo:42048:1,2013-07-05T22:00:00Z,27.9396,-96.8429,2.0,36.0085,11111222 
TABS,ioos:station:wmo:42048:1,2013-07-05T22:30:00Z,27.9396,-96.8429,2.0,35.9784,11111222 
TABS,ioos:station:wmo:42048:1,2013-07-05T23:00:00Z,27.9396,-96.8429,2.0,35.9718,11111222 
TABS,ioos:station:wmo:42048:1,2013-07-05T23:30:00Z,27.9396,-96.8429,2.0,35.971,11111222 
TABS,ioos:station:wmo:42048:1,2013-07-06T00:00:00Z,27.9396,-96.8429,2.0,35.959,11111222 
TABS,ioos:station:wmo:42048:1,2013-07-06T00:30:00Z,27.9396,-96.8429,2.0,35.9544,11111222 
TABS,ioos:station:wmo:42048:1,2013-07-06T01:00:00Z,27.9396,-96.8429,2.0,35.9513,11111222 
TABS,ioos:station:wmo:42048:1,2013-07-06T01:30:00Z,27.9396,-96.8429,2.0,35.9465,11111222 
TABS,ioos:station:wmo:42048:1,2013-07-06T02:00:00Z,27.9396,-96.8429,2.0,35.9458,11111222 
TABS,ioos:station:wmo:42048:1,2013-07-06T02:30:00Z,27.9396,-96.8429,2.0,35.9368,11111222 
TABS,ioos:station:wmo:42048:1,2013-07-06T03:00:00Z,27.9396,-96.8429,2.0,35.9292,11111222 
TABS,ioos:station:wmo:42048:1,2013-07-06T03:30:00Z,27.9396,-96.8429,2.0,35.9256,11111222 
TABS,ioos:station:wmo:42048:1,2013-07-06T04:00:00Z,27.9396,-96.8429,2.0,35.927,11111222 
TABS,ioos:station:wmo:42048:1,2013-07-06T04:30:00Z,27.9396,-96.8429,2.0,35.9263,11111222 
TABS,ioos:station:wmo:42048:1,2013-07-06T05:00:00Z,27.9396,-96.8429,2.0,35.92,11111222 
TABS,ioos:station:wmo:42048:1,2013-07-06T05:30:00Z,27.9396,-96.8429,2.0,35.9169,11111222 
TABS,ioos:station:wmo:42048:1,2013-07-06T06:00:00Z,27.9396,-96.8429,2.0,35.9162,11111222 
TABS,ioos:station:wmo:42048:1,2013-07-06T06:30:00Z,27.9396,-96.8429,2.0,35.9217,11111222 
TABS,ioos:station:wmo:42048:1,2013-07-06T07:00:00Z,27.9396,-96.8429,2.0,35.9191,11111222 
TABS,ioos:station:wmo:42048:1,2013-07-06T07:30:00Z,27.9396,-96.8429,2.0,35.9149,11111222 
TABS,ioos:station:wmo:42048:1,2013-07-06T08:00:00Z,27.9396,-96.8429,2.0,35.9133,11111222 
TABS,ioos:station:wmo:42048:1,2013-07-06T08:30:00Z,27.9396,-96.8429,2.0,35.9112,11111222 
TABS,ioos:station:wmo:42048:1,2013-07-06T09:00:00Z,27.9396,-96.8429,2.0,35.9154,11111222 
TABS,ioos:station:wmo:42048:1,2013-07-06T09:30:00Z,27.9396,-96.8429,2.0,35.9117,11111222 
TABS,ioos:station:wmo:42048:1,2013-07-06T10:00:00Z,27.9396,-96.8429,2.0,35.9122,11111222 
TABS,ioos:station:wmo:42048:1,2013-07-06T10:30:00Z,27.9396,-96.8429,2.0,35.9067,11111222 
TABS,ioos:station:wmo:42048:1,2013-07-06T11:00:00Z,27.9396,-96.8429,2.0,35.9051,11111222 
TABS,ioos:station:wmo:42048:1,2013-07-06T11:30:00Z,27.9396,-96.8429,2.0,35.9051,11111222 
TABS,ioos:station:wmo:42048:1,2013-07-06T12:00:00Z,27.9396,-96.8429,2.0,35.9088,11111222 
TABS,ioos:station:wmo:42048:1,2013-07-06T12:30:00Z,27.9396,-96.8429,2.0,35.9488,11111222 